Zurück zum Katalog

KUIPER-00159

AktivKommunikationLEO
NORAD 67764·PAYLOAD·🇺🇸 United States

Gestartet Feb 12, 2026 von Vandenberg Space Force Base

Loading…

Nächste Überflüge (nächste 24 Stunden)

TLE

AktuellSource: CelesTrak SupGP

Epoche: Sep 14, 2026, 21:51 UTC

1 67764C 26030A   26257.91045139  .00005424  00000+0  76862-3 0  2578
2 67764  51.9016  47.4919 0000212 110.7205  44.5261 14.76568663    14

Verfolge KUIPER-00159 in Echtzeit mit AllMySat

Download on the App Store